Meteo Giornale » Osservazioni meteo Stati Uniti (USA) » Massena Intl-Richards Fld
ore: 22:53 - Osservazioni Meteo Massena Intl-Richards Fld
Lat. 44° 56' N Lon. 74° 50' W Alt. 66 metri s.l.m.
17 °C
Sereno
Temp. 24 Ore
14 °C
25 °C
Nord
0 Km/h
Dew point 16 °C
Umidità 93 %
Visibilità 10 Km
Il sole sorge alle ore 06:20
Il sole tramonta alle ore 19:38
| Data e Ora | Cielo e Fenomeni | T °C | DP °C | Um. % | Pres. hPa | Vis. km | Vento km/h | |
|---|---|---|---|---|---|---|---|---|
| Oggi h: 22:53 | Sereno | 17 | 16 | 93 | 1017 | 10 | N 0 | |
| Oggi h: 21:53 | Coperto | 19 | 17 | 88 | 1017 | 10 | N 0 | |
| Oggi h: 20:53 | Coperto | 19 | 18 | 93 | 1017 | 10 | N 0 | |
| Oggi h: 19:53 | Coperto | 21 | 18 | 82 | 1017 | 14 | N 0 | |
| Oggi h: 18:53 | Coperto | 23 | 16 | 64 | 1017 | 10 | N 0 | |
| Oggi h: 17:53 | Coperto | 23 | 17 | 68 | 1017 | 10 | N 5.5 | |
| Oggi h: 16:53 | Coperto | 23 | 17 | 68 | 1017 | 10 | N/NE 9.3 | |
| Oggi h: 15:53 | Nuvoloso | 25 | 16 | 57 | 1017 | 10 | NE 9.3 | |
| Oggi h: 14:53 | Molto Nuvoloso | 24 | 16 | 60 | 1018 | 10 | N/NE 11.1 | |
| Oggi h: 13:53 | Sereno | 25 | 17 | 61 | 1019 | 10 | N 9.3 | |
| Oggi h: 12:53 | Nuvoloso | 23 | 18 | 73 | 1019 | 10 | N/NO 11.1 | |
| Oggi h: 11:53 | Sereno | 23 | 17 | 68 | 1020 | 10 | N 0 | |
| Oggi h: 10:53 | Nuvoloso | 21 | 17 | 77 | 1020 | 10 | N 0 | |
| Oggi h: 10:42 | Molto Nuvoloso | 21 | 17 | 77 | 1020 | 10 | N 5.5 | |
| Oggi h: 10:27 | Nuvoloso | 20 | 17 | 82 | 1020 | 10 | N 0 | |
| Oggi h: 09:53 | Coperto | 19 | 17 | 88 | 1020 | 10 | N 5.5 | |
| Oggi h: 09:00 | Coperto | 18 | 18 | 100 | 1020 | 13 | N 0 | |
| Oggi h: 08:53 | Coperto | 18 | 18 | 100 | 1020 | 11 | N 0 | |
| Oggi h: 08:22 | Foschia | 18 | 17 | 93 | 1020 | 8 | N 0 | |
| Oggi h: 07:53 | Foschia | 17 | 17 | 100 | 1020 | 5 | N 5.5 | |
| Oggi h: 07:04 | Foschia | 17 | 17 | 100 | 1020 | 6 | N 5.5 | |
| Oggi h: 06:53 | Foschia | 17 | 17 | 100 | 1020 | 8 | N 0 | |
| Oggi h: 06:29 | Foschia | 17 | 17 | 100 | 1020 | 8 | N 0 | |
| Oggi h: 05:53 | Foschia | 17 | 17 | 100 | 1019 | 6 | N 0 | |
| Oggi h: 05:43 | Foschia | 17 | 17 | 100 | 1019 | 8 | SE 7.4 | |
| Oggi h: 05:35 | Foschia | 17 | 17 | 100 | 1019 | 8 | N 5.5 | |
| Oggi h: 05:03 | Foschia | 17 | 17 | 100 | 1019 | 8 | N 5.5 | |
| Oggi h: 04:53 | Foschia | 17 | 17 | 100 | 1019 | 8 | N/NE 7.4 | |
| Oggi h: 04:51 | Foschia | 17 | 17 | 100 | 1019 | 8 | N/NE 7.4 | |
| Oggi h: 04:39 | Foschia | 17 | 17 | 100 | 1019 | 5 | N 5.5 | |
| Oggi h: 04:25 | Foschia | 17 | 17 | 100 | 1019 | 3 | N 0 | |
| Oggi h: 04:17 | Foschia | 17 | 17 | 100 | 1019 | 2 | N 0 | |
| Oggi h: 04:10 | Nebbia | 17 | 17 | 100 | 1019 | 2 | N 0 | |
| Oggi h: 04:00 | Nebbia | 17 | 17 | 100 | 1019 | 2 | N 0 | |
| Oggi h: 03:53 | Nebbia | 17 | 17 | 100 | 1019 | 2 | N 0 | |
| Oggi h: 03:51 | Nebbia | 17 | 17 | 100 | 1019 | 2 | N 0 | |
| Oggi h: 02:53 | Nebbia | 17 | 17 | 100 | 1019 | 2 | N 5.5 | |
| Oggi h: 01:53 | Nebbia | 17 | 17 | 100 | 1019 | 2 | SO 7.4 | |
| Oggi h: 01:24 | Nebbia | 17 | 17 | 100 | 1019 | 2 | N 5.5 | |
| Oggi h: 01:17 | Nebbia | 17 | 17 | 100 | 1019 | 2 | N 5.5 | |
| Oggi h: 01:09 | Foschia | 16 | 16 | 100 | 1019 | 2 | N 5.5 | |
| Oggi h: 01:07 | Foschia | 16 | 16 | 100 | 1019 | 2 | N 0 | |
| Oggi h: 01:00 | Foschia | 16 | 16 | 100 | 1019 | 8 | N 0 | |
| Oggi h: 00:53 | Foschia | 15 | 15 | 100 | 1019 | 2 | N 5.5 | |
| Oggi h: 00:39 | Foschia | 14 | 14 | 100 | 1019 | 2 | N 0 | |
| Oggi h: 00:28 | Nebbia | 14 | 14 | 100 | 1019 | 2 | N 0 | |
| Oggi h: 00:23 | Foschia | 14 | 14 | 100 | 1019 | 5 | N 0 | |
| Oggi h: 00:19 | Foschia | 14 | 14 | 100 | 1019 | 2 | N 0 | |
| Oggi h: 00:08 | Nebbia | 15 | 15 | 100 | 1019 | 2 | N 0 | |
| Oggi h: 00:00 | Foschia | 16 | 16 | 100 | 1019 | 2 | N 5.5 | |
| Ieri h: 23:58 | Foschia | 16 | 16 | 100 | 1019 | 2 | N 5.5 | |
| Ieri h: 23:53 | Foschia | 16 | 16 | 100 | 1019 | 5 | N 5.5 | |



